Hourly Weather Roundup
Issued by NWS Central Illinois

Home | Current Version | Previous Version | Text Only | Print | Product List | Glossary On
Versions: 1 2 3 4 5 6 7 8 9 10 11 12 13 14 15 16 17 18 19 20 21 22 23 24 25 26 27 28 29 30 31 32 33 34 35 36 37 38 39 40 41 42 43 44 45 46 47 48 49 50
000
NZUS43 KILX 301810
HWRILX

Area Weather Roundup
National Weather Service Lincoln IL
100 PM CDT SUN APR 30 2017

NOTE:  "FAIR" indicates few or no clouds below 12,000 feet, with
       no sigificant weather and/or obstructions to visibility.


CITY           SKY/WX    TMP DP  RH WIND       PRES   REMARKS
Bloomington    LGT RAIN  54  53  97 N15       29.72F FOG
6HR MIN TEMP:  49; 6HR MAX TEMP:  59; 6HR PCP:  0.03;

Champaign      LGT RAIN  65  62  90 S26G36    29.75R
6HR MIN TEMP:  57; 6HR MAX TEMP:  66; 6HR PCP:  0.33;

Danville       HVY RAIN  64  63  94 S20G30    29.74F
6HR MIN TEMP:  55; 6HR MAX TEMP:  66; 6HR PCP:  0.35;

Decatur        LGT RAIN  64  64 100 S16G25    29.73F
6HR MIN TEMP:  53; 6HR MAX TEMP:  64; 6HR PCP:  0.06;

Effingham      RAIN      65  65 100 SE10G16   29.79F
6HR MIN TEMP:  58; 6HR MAX TEMP:  65; 6HR PCP:  0.45;

Flora          LGT RAIN  66  65  96 SE10      29.79F
6HR MIN TEMP:  64; 6HR MAX TEMP:  66; 6HR PCP:  0.78;

Galesburg      CLOUDY    47  47  97 NE14G20   29.72R
6HR MIN TEMP:  44; 6HR MAX TEMP:  47; 6HR PCP:  0.03;

Jacksonville   LGT RAIN  62  61  96 SE15G22   29.65F
6HR MIN TEMP:  47; 6HR MAX TEMP:  62; 6HR PCP:  0.05;

Lacon          CLOUDY    49  48  97 NE10      29.75F
6HR MIN TEMP:  44; 6HR MAX TEMP:  49; 6HR PCP:  0.04;

Lawrenceville  LGT RAIN  65  65 100 SE10      29.83F
6HR MIN TEMP:  65; 6HR MAX TEMP:  67; 6HR PCP:  1.22;

Litchfield     HVY RAIN  62  62 100 SE9       29.72F
6HR MIN TEMP:  51; 6HR MAX TEMP:  62; 6HR PCP:  0.07;

$$


CITY           SKY/WX    TMP DP  RH WIND       PRES   REMARKS
Lincoln        DRIZZLE   57  57 100 NE5       29.71F
6HR MIN TEMP:  50; 6HR MAX TEMP:  61; 6HR PCP:  0.01;

Macomb         CLOUDY    48  48 100 NE14      29.74R
6HR MIN TEMP:  46; 6HR MAX TEMP:  49; 6HR PCP:  0.02;

Mattoon        RAIN      64  63  96 S13       29.77F
6HR MIN TEMP:  57; 6HR MAX TEMP:  64; 6HR PCP:  0.28;

Mt Carmel AP   LGT RAIN  65  63  95 SE9       29.80F
Olney-Noble AP LGT RAIN  64  64 100 CALM      29.80F
Paris AP       LGT RAIN N/A N/A N/A S17       29.81F
                                      6HR PCP:  0.11;

Peoria         CLOUDY    49  49 100 E16       29.71F FOG
6HR MIN TEMP:  48; 6HR MAX TEMP:  50; 6HR PCP:  0.04;

Pontiac        CLOUDY    52  51  98 NE14      29.76F FOG
6HR MIN TEMP:  48; 6HR MAX TEMP:  55; 6HR PCP:  0.07;

Rantoul        RAIN      66  64  93 SW7       29.75F
6HR MIN TEMP:  56; 6HR MAX TEMP:  66; 6HR PCP:  0.32;

Robinson       RAIN      64  64  99 SE9       29.82F
6HR MIN TEMP:  64; 6HR MAX TEMP:  65; 6HR PCP:  0.59;

Springfield    LGT RAIN  65  62  90 S15       29.69F
6HR MIN TEMP:  50; 6HR MAX TEMP:  65; 6HR PCP:  0.04;

Taylorville    RAIN      63  63  98 S14       29.73F
6HR MIN TEMP:  50; 6HR MAX TEMP:  63; 6HR PCP:  0.11;

$$

...REGIONAL REPORTS...


CITY           SKY/WX    TMP DP  RH WIND       PRES   REMARKS
Chicago O`Hare LGT RAIN  46  43  89 N17       29.81F FOG
Kankakee       CLOUDY    55  55  98 CALM      29.79S
Moline         CLOUDY    47  43  86 NE18      29.73F FOG
Mount Sterling RAIN      50  50  99 N7        29.67S
Mount Vernon   LGT RAIN  65  64  97 E7        29.75F
Pittsfield     LGT RAIN  61  61 100 SE12      29.66F
Quincy         LGT RAIN  51  51 100 NE12      29.66S FOG
Rockford       DRIZZLE   47  44  90 NE18      29.82F FOG
$$


CITY           SKY/WX    TMP DP  RH WIND       PRES   REMARKS
Burlington     CLOUDY    48  48 100 NE13      29.71F FOG
Cedar Rapids   CLOUDY    44  43  96 E20       29.75F
Des Moines     DRIZZLE   44  41  89 NE15G26   29.67F
Kirksville     CLOUDY    47  32  56 E21G30    29.54F
Ottumwa        LGT RAIN  45  44  97 E23G30    29.66F
St Louis       LGT RAIN  65  62  90 E23       29.66F
$$


CITY           SKY/WX    TMP DP  RH WIND       PRES   REMARKS
Terre Haute    RAIN      65  63  93 S10       29.83F
Evansville     LGT RAIN  66  64  93 W6G15     29.82F FOG
Indianapolis   LGT RAIN  66  64  93 SW13      29.85R
Lafayette      LGT RAIN  65  63  93 SW14G23   29.80R
Madison        DRIZZLE   44  41  89 NE18      29.86F
Milwaukee      LGT RAIN  42  41  96 N17       29.89F FOG     WCI  34
$$






USA.gov is the U.S. government's official web portal to all federal, state and local government web resources and services.